Flag for Mexico Weather past 2 weeks in Ojinaga, Chihuahua, Mexico

Now
45 °F

Clear.


Feels Like: 45 °F
Forecast: 44 / 84 °F
Wind: No wind

Location: Marfa Municipal Airport


UV Index: 7 (High)

Visibility: 10 mi


Pressure: 30.06 "Hg

Humidity: 21%

Dew point: 7 °F

Location of OjinagaLocation

Historic Weather in Ojinaga

°F

Ojinaga temperature yesterday

Maximum temperature yesterday: 61 °F (at 12:15 AM)
Minimum temperature yesterday: 36 °F (at 5:55 AM)
Average temperature yesterday: 46 °F

Past Weeks' High & Low Weather Summary

 TemperatureHumidityPressure
High82 °F (Apr 1, 2:15 PM)80% (Apr 8, 6:35 AM)30.40 "Hg (Apr 8, 6:35 AM)
Low19 °F (Apr 15, 6:15 AM)9% (Apr 9, 1:35 PM)29.79 "Hg (Apr 5, 4:35 PM)
Average57 °F24%30.06 "Hg
* Reported Mar 31 9:15 PM — Apr 15 9:55 PM, Ojinaga, Weather by CustomWeather, © 2014

Note: Actual official high and low records may vary slightly from our data, if they occured in-between our weather recording intervals... More about our weather records

Advertising

Historic Weather Conditions — Data for Previous 24 hours

 ConditionsComfort  
Time TempWeatherWind HumidityBarometerVisibility
9:55 PM
Apr 15
46 °FClear.5 mph18%30.06 "Hg10 mi
9:35 PM46 °FClear.3 mph17%30.07 "Hg10 mi
9:15 PM48 °FClear.No wind17%30.07 "Hg10 mi
8:55 PM52 °FClear.3 mph16%30.07 "Hg10 mi
8:35 PM52 °FClear.6 mph16%30.06 "Hg10 mi
8:15 PM54 °FSunny.7 mph13%30.06 "Hg10 mi
7:55 PM54 °FSunny.7 mph13%30.06 "Hg10 mi
7:35 PM57 °FSunny.7 mph11%30.06 "Hg10 mi
7:15 PM61 °FSunny.12 mph11%30.07 "Hg10 mi
6:55 PM61 °FSunny.9 mph11%30.07 "Hg10 mi
4:55 PM64 °FSunny.14 mph11%30.10 "Hg10 mi
4:35 PM64 °FSunny.8 mph11%30.11 "Hg10 mi
4:15 PM64 °FSunny.13 mph11%30.12 "Hg10 mi
3:55 PM64 °FSunny.15 mph11%30.13 "Hg10 mi
3:35 PM64 °FSunny.14 mph11%30.14 "Hg10 mi
2:55 PM64 °FSunny.17 mph11%30.16 "Hg10 mi
2:35 PM63 °FSunny.12 mph12%30.18 "Hg10 mi
2:15 PM63 °FSunny.14 mph12%30.19 "Hg10 mi
1:55 PM63 °FSunny.20 mph12%30.20 "Hg10 mi
1:35 PM61 °FSunny.13 mph12%30.22 "Hg10 mi
1:15 PM61 °FSunny.14 mph12%30.23 "Hg10 mi
12:55 PM57 °FSunny.12 mph14%30.25 "Hg10 mi
12:35 PM57 °FSunny.17 mph14%30.26 "Hg10 mi
12:15 PM55 °FSunny.12 mph15%30.28 "Hg10 mi
11:55 AM54 °FSunny.16 mph15%30.28 "Hg10 mi
11:35 AM54 °FSunny.14 mph14%30.29 "Hg10 mi
11:15 AM54 °FSunny.15 mph15%30.29 "Hg10 mi
10:55 AM52 °FSunny.12 mph17%30.30 "Hg10 mi
10:35 AM48 °FSunny.10 mph21%30.31 "Hg10 mi
10:15 AM46 °FSunny.10 mph25%30.31 "Hg10 mi
9:55 AM43 °FSunny.8 mph34%30.32 "Hg10 mi
9:35 AM43 °FSunny.8 mph34%30.32 "Hg10 mi
9:15 AM41 °FSunny.8 mph36%30.32 "Hg10 mi
8:55 AM39 °FSunny.10 mph39%30.33 "Hg10 mi
8:35 AM37 °FSunny.8 mph41%30.33 "Hg10 mi
7:55 AM34 °FSunny.No wind48%30.32 "Hg10 mi
7:35 AM30 °FSunny.3 mph55%30.32 "Hg10 mi
7:15 AM25 °FClear.6 mph59%30.31 "Hg10 mi
6:55 AM19 °FClear.6 mph63%30.30 "Hg10 mi
6:35 AM19 °FClear.6 mph68%30.29 "Hg10 mi
6:15 AM19 °FClear.No wind68%30.29 "Hg10 mi
5:55 AM21 °FClear.6 mph63%30.29 "Hg10 mi
5:35 AM21 °FClear.6 mph58%30.29 "Hg10 mi
5:15 AM23 °FClear.6 mph63%30.29 "Hg10 mi
4:55 AM23 °FClear.5 mph58%30.29 "Hg10 mi
4:35 AM25 °FClear.5 mph59%30.29 "Hg10 mi
4:15 AM23 °FClear.6 mph58%30.29 "Hg10 mi
3:55 AM25 °FClear.No wind54%30.29 "Hg10 mi
3:35 AM27 °FClear.7 mph54%30.30 "Hg10 mi
3:15 AM27 °FClear.6 mph54%30.30 "Hg10 mi
2:55 AM27 °FClear.6 mph54%30.31 "Hg10 mi
2:35 AM27 °FClear.8 mph50%30.31 "Hg10 mi
1:55 AM28 °FClear.6 mph51%30.33 "Hg10 mi
12:55 AM30 °FClear.No wind51%30.34 "Hg10 mi
12:35 AM34 °FClear.5 mph48%30.34 "Hg10 mi
12:15 AM34 °FClear.6 mph44%30.34 "Hg10 mi
11:55 PM
Apr 14
36 °FClear.6 mph44%30.34 "Hg10 mi
Weather by CustomWeather, © 2014

See weather overview